Wind_Speed
29 29 30 30 30 30 29 28 27 25 24 23 22 21 20 19 19 19 19 20 20 21 21 21 21 21 21 21 21 21 20 20 20 20 20 20 19 17 16 14 12 12 12 13 12 12 13 12 11 10 10 10 10 10 9 9 10 12 14 15 15 15 15 14 13 11 9 8 7 7 7 8 8 9 11 11 10 9 8 8 8 9 9 9 9
30 31 31 31 31 31 30 28 27 25 24 23 22 21 20 19 19 18 19 19 20 21 21 22 22 21 21 21 21 21 21 21 21 21 20 20 19 18 17 15 13 12 13 13 12 12 13 13 11 11 11 11 11 11 10 9 10 11 13 14 15 15 16 15 14 12 10 9 8 8 8 8 9 10 11 12 11 9 8 8 8 8 8 9 9
31 33 33 33 31 31 30 28 26 24 24 23 21 20 19 19 18 18 19 19 20 21 21 22 22 22 22 21 21 21 21 21 21 21 20 20 18 18 17 16 14 12 12 13 13 13 13 13 12 11 11 11 11 11 10 10 10 11 12 13 14 16 16 16 15 13 11 10 9 9 9 9 9 10 11 12 11 10 9 8 8 8 8 8 8
30 32 33 33 32 31 29 27 25 24 23 22 21 20 19 18 18 19 19 20 20 21 21 22 22 22 22 22 22 22 21 21 21 21 20 20 18 17 17 16 15 13 12 13 14 13 13 13 12 12 12 12 11 11 11 10 11 11 11 13 15 16 17 16 16 14 12 10 9 9 9 9 10 10 12 12 12 10 9 9 8 8 8 8 8
28 29 31 32 31 29 28 26 25 23 23 22 21 21 19 18 19 19 20 20 21 21 22 22 22 23 23 23 22 22 22 21 21 21 20 20 19 17 17 16 16 14 13 13 14 14 13 13 12 11 12 12 12 12 12 12 11 11 11 13 15 16 17 17 16 14 12 11 9 9 10 10 10 11 12 12 12 11 10 9 9 9 9 8 8
28 29 30 30 29 28 27 26 24 23 22 22 21 21 20 19 19 19 20 21 21 22 22 23 23 23 23 23 23 22 22 22 21 21 20 20 19 18 17 16 16 15 13 13 15 15 14 13 12 11 11 12 12 13 13 13 12 11 11 13 15 17 17 17 16 14 12 11 10 10 10 10 11 11 12 12 12 12 11 10 9 9 9 9 8
31 30 29 29 28 27 26 25 24 23 22 22 21 20 20 19 19 20 20 21 22 22 23 23 23 23 23 23 23 23 22 21 21 20 20 20 19 19 18 17 16 15 14 13 14 16 15 14 12 11 11 12 13 13 14 14 13 11 11 13 15 17 17 17 16 14 13 12 11 11 11 11 12 12 12 13 13 12 11 11 10 10 9 9 9
35 32 29 28 27 27 26 25 23 23 22 21 21 20 19 20 20 20 21 22 22 23 23 24 24 23 23 23 23 23 22 21 20 20 20 20 19 19 18 18 17 15 14 14 14 16 16 15 14 11 10 12 13 14 15 15 14 12 11 13 15 17 17 17 16 15 13 13 12 12 12 12 12 12 12 13 13 13 12 11 11 11 10 9 9
37 33 30 28 27 27 26 25 24 23 22 21 21 20 20 21 21 22 22 22 23 23 24 24 24 24 23 24 24 23 22 21 20 19 20 20 20 20 19 18 17 15 14 14 14 16 17 16 15 12 10 11 13 14 16 16 14 12 11 12 14 16 17 18 17 15 15 14 13 12 12 12 12 11 11 12 13 14 13 12 12 12 11 10 10
37 34 31 29 28 27 26 25 24 23 22 21 21 21 21 21 22 23 23 23 23 23 23 24 24 24 24 24 24 23 22 21 20 19 20 20 20 20 19 17 17 16 15 14 14 15 17 17 16 14 11 10 12 14 15 15 15 13 11 11 14 16 17 18 18 17 16 15 14 13 13 13 12 11 11 12 13 14 14 14 13 13 12 11 10
37 34 32 30 28 27 26 25 23 22 22 21 21 21 22 22 23 23 24 24 24 24 23 23 24 24 24 24 24 23 22 21 20 20 20 20 20 19 19 18 17 16 15 15 14 14 16 17 17 16 13 11 11 12 14 15 15 14 12 12 13 15 17 19 19 18 18 17 16 16 14 13 12 11 11 11 13 14 15 14 14 13 13 12 11
36 33 31 29 27 26 25 24 23 22 21 21 21 21 22 23 23 24 24 24 24 24 23 23 24 24 24 24 24 23 22 21 21 20 20 20 19 19 18 18 17 16 15 15 14 14 15 16 17 17 15 13 12 12 13 14 15 15 14 12 12 14 16 19 20 19 19 18 18 17 15 14 13 12 11 11 12 14 15 15 14 14 13 12 12
32 30 28 27 25 25 24 23 23 22 21 21 22 22 23 23 23 24 24 24 24 24 24 24 24 24 25 25 24 23 23 22 21 21 20 19 19 19 18 18 17 16 15 14 14 15 15 16 17 17 16 15 13 13 13 13 14 15 15 14 13 14 15 18 20 20 19 18 19 18 17 16 15 14 13 13 13 14 15 15 15 14 14 13 12
27 27 25 25 24 24 24 23 22 22 21 22 22 23 23 23 23 24 24 24 24 24 24 24 24 24 25 24 24 23 23 22 22 21 20 19 19 18 18 18 17 16 14 14 14 15 15 16 17 17 16 16 15 14 14 14 14 15 16 15 14 13 14 18 20 21 19 19 20 20 19 18 16 15 15 14 14 14 15 15 16 15 14 13 12
24 24 23 24 24 24 24 23 22 22 22 23 23 23 23 23 23 23 23 24 24 24 24 24 24 24 24 24 23 22 22 22 22 21 20 19 18 18 17 18 17 16 15 14 13 14 15 17 18 18 17 16 17 16 16 15 14 15 17 17 16 14 14 16 20 21 20 20 21 21 20 19 17 16 16 15 15 15 15 16 16 15 15 14 13
23 23 23 24 24 24 23 22 22 22 23 24 24 23 23 23 22 22 22 23 24 24 24 25 25 24 24 23 22 22 22 22 22 21 19 19 18 18 17 18 18 17 16 15 15 14 15 16 18 19 18 17 17 18 17 17 15 16 17 18 17 15 14 15 19 21 22 21 23 22 20 19 18 18 17 17 16 16 16 16 16 16 15 15 14
19 22 22 24 23 23 22 22 23 23 24 23 23 22 22 22 22 22 23 23 24 24 25 25 24 24 23 22 22 22 22 22 21 20 19 19 18 17 17 18 19 19 18 18 17 16 15 16 18 19 20 19 18 18 18 18 17 17 18 19 19 17 15 15 17 21 22 23 24 22 20 19 19 19 18 18 17 17 17 16 17 16 16 15 14
18 20 21 23 23 23 22 23 23 23 23 23 22 22 22 22 22 22 23 24 24 25 25 25 24 23 23 23 23 23 22 21 20 19 18 18 17 17 17 18 19 20 19 18 17 17 16 17 18 19 21 21 20 19 19 19 18 18 18 19 20 19 17 16 16 20 23 24 25 23 21 20 20 20 20 19 19 17 17 17 17 17 16 16 15
18 20 22 23 23 23 23 23 23 23 22 22 22 22 21 21 21 22 23 24 25 25 25 24 24 23 23 24 24 23 22 21 19 18 17 17 17 17 17 18 19 19 20 19 18 17 17 17 17 18 20 21 21 20 20 20 20 19 19 20 21 21 19 17 15 19 23 25 25 24 23 22 22 22 21 20 19 18 18 17 17 17 17 16 15
22 21 22 24 24 24 24 24 24 23 22 22 22 21 21 21 22 22 24 25 25 25 25 24 24 24 24 24 23 22 22 21 19 19 18 16 17 17 17 18 19 20 20 20 19 18 17 17 17 18 20 21 21 20 20 21 21 21 21 20 21 21 21 19 16 17 22 25 26 26 25 24 24 23 22 21 20 20 19 18 18 17 17 17 16
27 24 23 23 23 23 23 23 23 21 21 22 22 22 22 22 22 23 24 24 24 25 24 24 25 24 24 23 23 22 21 20 19 19 18 17 17 17 18 19 20 21 21 20 19 18 18 17 16 17 19 21 21 21 21 22 22 22 22 22 21 22 23 21 17 17 21 25 27 27 26 25 25 25 24 23 22 21 20 19 18 18 17 17 17
29 26 24 24 22 21 20 20 20 19 20 21 22 22 23 23 23 23 24 24 24 24 25 25 25 24 23 23 23 22 21 20 19 19 18 18 18 19 19 19 20 21 21 20 19 18 17 16 15 16 18 21 22 22 22 22 23 23 23 23 22 22 23 22 19 18 20 24 27 27 27 27 26 26 25 24 23 22 21 20 19 18 18 17 17
28 25 23 22 21 20 19 18 19 19 20 20 22 23 24 24 24 24 23 23 24 25 25 26 26 24 23 22 22 22 21 19 18 18 17 17 18 19 20 19 20 20 20 20 20 19 17 15 14 15 18 20 21 22 22 23 23 24 24 24 23 23 23 24 22 19 19 23 27 28 29 29 28 27 27 26 25 24 23 22 20 19 18 18 17
27 23 21 20 20 20 19 19 19 19 19 19 21 23 24 24 24 23 22 23 25 25 26 26 26 25 24 23 22 22 20 18 18 18 17 17 18 19 19 19 19 20 21 20 20 19 17 16 15 16 18 20 21 22 22 23 24 24 24 24 24 24 24 25 23 19 19 22 26 29 30 30 30 29 28 27 27 26 25 24 22 20 19 18 17
27 23 21 19 19 19 19 19 19 18 18 20 21 22 23 23 23 22 22 23 24 25 26 26 26 25 25 23 22 21 18 17 16 16 15 16 18 19 18 18 19 20 20 20 20 19 18 17 16 16 18 19 21 21 20 21 23 24 24 24 24 25 25 24 23 22 21 21 24 28 30 31 31 31 30 29 28 27 26 25 23 21 20 19 18
25 21 19 18 18 18 17 18 17 17 18 19 20 21 22 23 23 22 22 23 24 25 25 26 25 25 24 23 22 20 17 15 14 13 13 15 17 18 17 17 18 18 19 19 19 19 19 19 17 16 17 19 19 20 19 19 22 23 23 23 24 25 26 24 23 25 24 22 22 26 30 32 32 32 32 31 29 28 26 25 24 23 21 20 19
21 18 16 15 15 15 16 16 16 17 18 18 18 20 21 22 22 22 23 24 24 25 25 25 24 23 23 23 22 19 17 15 14 14 14 14 15 15 15 16 16 17 18 18 18 19 19 19 19 18 18 18 18 19 19 19 21 22 22 22 24 25 26 23 22 25 27 25 23 24 28 31 33 33 33 32 30 29 27 26 26 25 24 22 21
18 15 13 12 13 14 14 15 15 16 17 17 17 19 20 21 21 22 23 24 24 24 24 24 23 22 22 22 20 18 17 15 14 14 14 14 14 14 15 15 16 17 17 17 17 18 18 17 17 18 19 19 19 19 19 20 21 22 22 22 24 25 25 24 22 24 27 29 27 24 25 28 31 33 34 33 32 31 29 28 28 27 26 24 23
14 12 11 11 12 13 14 14 15 16 16 17 17 18 19 20 21 21 22 23 23 23 23 22 21 20 19 19 19 17 16 14 13 14 14 14 14 13 14 14 15 16 16 16 16 17 18 17 17 18 19 20 20 20 20 20 21 23 23 22 23 25 25 25 23 22 24 29 30 27 25 27 29 31 34 34 33 33 32 31 30 29 28 27 26
10 10 10 11 12 13 14 15 15 16 17 17 18 18 19 19 20 20 21 21 21 21 20 20 20 19 17 17 17 16 14 14 14 15 15 15 15 14 14 14 14 15 16 16 16 17 18 18 19 19 18 19 20 21 22 22 23 24 24 23 24 25 26 26 24 22 22 26 31 31 28 27 27 29 32 34 34 34 34 33 32 31 30 29 28
8 9 10 10 11 13 15 16 16 17 18 18 18 19 19 19 19 19 18 18 18 19 18 18 18 17 16 16 16 14 13 13 14 15 16 16 16 15 15 15 14 14 15 16 17 18 19 19 20 20 19 18 18 20 23 24 24 25 25 24 24 25 26 26 26 23 22 24 30 33 32 29 28 28 30 32 34 35 35 34 34 33 32 31 30
8 9 10 9 12 15 16 17 17 18 19 19 19 20 20 19 18 18 17 16 16 17 17 16 16 15 15 15 14 14 14 15 15 17 18 17 17 16 15 14 13 13 15 16 17 17 18 19 20 21 20 18 17 18 19 22 24 25 25 25 24 25 25 26 26 24 24 24 27 33 35 33 31 29 30 31 32 34 36 35 34 34 33 32 32
7 8 9 11 13 16 17 17 18 18 19 20 20 20 20 19 18 18 17 16 16 16 16 16 15 14 13 13 13 14 15 17 17 18 18 16 15 14 13 13 12 14 15 16 16 16 16 18 19 20 19 18 17 16 16 19 22 23 24 25 25 26 25 25 26 24 25 25 25 31 36 36 34 32 31 31 32 33 35 36 36 35 34 34 34
6 8 10 13 15 17 17 17 18 18 19 19 20 20 20 19 18 17 17 16 15 16 16 16 15 13 12 12 12 13 16 18 18 18 17 14 12 11 11 11 12 13 14 14 15 15 15 17 18 18 18 18 17 17 16 17 19 21 23 23 24 26 25 24 24 24 25 26 25 28 35 38 38 35 33 32 32 32 34 36 37 36 36 35 35
7 9 12 15 16 17 17 17 17 18 19 19 19 19 19 19 18 17 17 16 15 16 15 15 15 14 13 13 13 13 16 18 17 17 16 12 10 10 11 10 10 11 12 13 13 12 13 16 18 18 20 20 18 16 16 17 19 20 21 21 22 23 23 22 22 23 24 26 26 27 31 37 40 38 35 33 32 31 32 34 36 37 37 36 35
8 10 13 15 17 18 18 18 18 18 19 19 19 19 19 18 17 17 17 17 16 16 16 15 15 15 15 15 15 15 16 17 17 16 14 13 11 10 11 10 9 10 11 11 12 12 12 14 17 19 21 21 19 17 17 18 19 19 19 20 21 22 22 21 22 24 24 25 26 27 29 34 41 41 37 34 33 32 32 33 34 36 37 37 36
10 12 14 15 17 18 19 19 18 18 19 19 19 18 18 18 18 18 18 18 17 17 17 16 15 15 15 16 16 16 16 15 16 16 15 14 13 12 11 11 10 11 11 11 12 13 13 15 16 18 20 20 19 17 17 17 19 19 19 19 20 21 21 21 23 24 24 24 24 26 28 32 38 42 39 36 34 32 31 31 32 34 36 37 37
13 14 15 17 18 18 18 18 17 17 17 17 17 17 17 18 18 18 18 17 17 18 17 17 16 15 15 16 16 17 16 15 15 16 16 16 15 14 14 13 12 12 13 13 13 14 15 16 15 16 18 18 18 18 17 17 18 18 18 18 18 20 21 22 23 24 24 23 23 24 26 30 35 39 40 38 35 33 30 30 31 32 34 36 37
16 18 19 19 18 18 17 16 16 16 16 16 16 16 17 18 19 20 19 18 17 18 18 17 17 16 16 16 16 17 17 17 17 17 17 17 16 16 16 15 14 14 14 15 15 16 16 17 17 17 18 18 17 18 17 16 17 17 18 18 17 18 20 21 22 24 24 23 24 24 24 27 32 38 40 39 36 34 31 30 30 31 32 34 36
19 21 22 21 18 18 16 15 15 14 15 15 15 15 15 16 18 19 20 19 18 18 18 18 18 17 17 16 16 16 17 18 18 18 19 18 18 18 18 18 17 16 16 16 17 17 17 17 17 19 19 18 18 17 17 17 17 17 18 18 17 16 17 19 21 23 24 24 24 24 23 25 31 37 40 39 37 35 33 31 31 31 31 32 33
20 23 25 24 20 17 16 15 14 14 14 14 14 14 14 15 17 19 20 20 20 19 19 19 18 18 18 17 17 17 17 18 18 19 19 19 19 20 20 20 19 18 17 17 18 18 18 18 18 19 20 20 18 17 18 18 18 18 17 18 18 16 16 17 18 20 23 24 26 26 25 25 29 35 40 40 38 38 36 35 33 32 32 32 31
21 24 28 27 21 17 15 14 14 14 14 14 14 14 14 14 15 18 19 19 20 20 20 19 19 18 18 18 18 18 18 18 19 19 20 20 20 20 20 20 20 19 18 18 18 18 19 19 19 20 20 20 19 18 19 18 19 18 17 18 18 18 17 17 17 17 18 20 23 27 27 27 27 31 36 40 40 40 39 37 36 35 34 33 31
22 23 24 23 20 17 15 14 14 15 15 15 14 13 13 14 14 16 17 18 19 20 20 20 19 19 18 18 19 19 19 19 20 20 20 20 20 20 20 20 20 20 19 19 19 19 19 20 20 20 21 21 20 20 19 19 19 19 18 18 19 19 19 19 20 20 19 17 18 21 24 27 29 30 32 37 41 43 41 40 39 38 37 35 33
23 22 21 21 21 19 17 16 15 15 16 16 14 14 13 13 14 16 17 17 17 18 19 19 19 19 18 19 19 19 20 20 20 20 20 20 21 21 21 21 20 20 20 19 19 19 19 20 20 21 22 22 22 21 20 19 19 19 19 19 19 19 19 19 20 21 20 19 17 17 17 21 26 30 32 34 38 41 43 43 43 42 40 38 35
23 22 22 23 24 22 20 18 17 17 17 17 15 14 13 14 14 16 18 18 17 17 18 18 19 19 19 19 19 19 20 20 20 20 19 19 20 21 21 21 20 20 20 19 19 19 19 20 20 21 22 22 22 22 20 20 19 19 19 19 19 19 18 18 20 21 21 20 19 18 17 17 19 23 28 32 35 38 41 44 45 45 43 41 38
21 20 21 23 25 26 24 21 19 19 19 18 16 14 13 13 14 16 17 18 17 17 17 17 18 18 19 19 19 20 20 20 20 19 19 18 19 20 20 20 20 20 20 20 19 19 20 20 20 21 22 22 22 22 21 21 21 20 20 20 20 19 19 19 20 21 21 21 20 19 18 18 17 17 18 23 28 34 37 40 43 46 45 43 41
20 20 20 22 24 25 25 23 21 20 20 20 18 16 14 13 14 15 16 17 18 18 18 17 17 18 19 19 19 20 20 20 19 19 18 18 18 19 19 19 19 19 20 20 19 19 20 20 21 21 22 22 22 22 21 21 21 21 20 21 21 20 19 20 21 21 20 19 19 20 19 18 18 16 15 16 20 26 32 37 39 43 45 44 43
19 20 21 22 23 22 23 23 21 21 21 21 19 17 15 14 14 15 16 17 17 18 18 18 18 18 19 19 19 19 20 19 19 19 18 18 18 18 18 19 19 19 19 19 19 19 20 20 20 21 21 21 21 21 21 21 22 21 20 20 21 21 20 20 21 21 20 19 19 19 18 18 16 14 13 13 15 18 24 32 37 39 41 43 44
20 21 22 22 22 23 24 23 22 22 22 21 21 20 17 15 15 15 16 17 18 18 19 19 19 20 19 19 19 19 19 19 18 18 18 18 18 18 18 18 18 18 18 18 18 18 19 20 20 20 20 20 21 21 21 21 21 21 20 20 21 21 20 21 22 23 23 23 21 19 19 19 18 17 18 18 17 16 17 22 31 36 39 41 43
20 20 22 22 22 24 26 25 25 25 24 23 23 22 21 18 16 15 16 18 19 19 19 20 20 20 20 19 19 18 18 18 18 17 17 17 17 17 18 18 17 17 17 17 17 17 18 19 19 19 18 19 19 20 20 20 21 21 20 20 20 20 20 21 23 24 25 25 25 23 23 23 23 23 24 23 22 20 18 16 20 28 36 39 39
20 20 22 22 22 23 27 31 30 27 26 25 25 25 24 21 18 16 17 19 20 20 20 20 20 20 20 19 19 18 18 17 17 17 16 16 15 16 16 16 16 16 16 16 17 17 17 17 17 17 17 17 17 18 18 18 19 19 19 19 20 20 20 21 22 24 25 26 25 24 24 25 25 25 25 24 23 22 20 17 16 19 26 32 34
Wind_Direction
261 262 263 265 265 266 267 268 270 272 274 274 276 278 281 285 289 291 292 293 294 296 296 294 293 292 292 292 292 292 291 290 289 288 288 289 290 290 290 288 282 272 265 258 249 245 246 246 247 243 237 235 230 224 218 213 210 210 211 210 207 206 203 197 194 195 195 192 195 201 198 195 190 185 180 176 169 160 149 138 130 125 122 120 122
258 262 263 265 265 266 266 268 270 271 272 273 274 277 281 285 289 292 293 294 295 295 295 293 292 290 290 290 290 290 290 290 289 288 288 289 291 291 291 289 283 273 266 259 249 243 243 244 245 241 236 234 230 225 220 214 211 211 211 210 208 206 204 199 196 195 194 193 195 199 198 199 197 191 184 179 172 164 154 144 136 131 127 123 124
257 261 263 264 264 265 266 268 269 270 271 271 273 276 280 284 288 292 293 294 295 295 295 294 291 289 288 288 288 289 290 289 289 289 289 290 291 291 290 288 284 274 266 260 250 242 242 242 243 239 235 234 229 224 220 216 212 212 212 210 208 208 205 201 198 196 194 194 197 201 200 201 200 195 189 183 177 169 160 150 143 137 134 129 128
260 262 263 263 263 264 266 267 267 268 268 269 272 275 278 282 288 291 292 293 294 294 294 293 290 288 287 287 288 289 289 289 289 289 290 290 290 289 287 286 283 275 264 260 251 242 240 241 241 238 234 234 230 223 221 218 216 214 212 208 207 209 207 204 200 197 195 194 198 204 204 202 200 197 193 187 181 174 166 157 150 146 143 137 134
264 265 263 262 262 263 264 265 266 266 267 269 272 274 278 283 287 290 292 293 294 294 293 292 290 288 287 287 287 288 288 288 289 290 291 290 290 288 285 283 280 275 264 257 250 241 238 240 240 238 234 234 230 223 221 221 220 216 210 206 206 209 208 205 202 199 197 195 198 207 211 208 201 197 196 191 186 179 172 164 159 154 151 149 143
264 266 264 263 261 261 262 263 264 264 266 269 272 274 278 283 287 289 291 292 293 293 291 291 289 288 286 286 286 286 287 287 288 289 290 290 289 287 283 279 276 273 264 256 249 241 238 239 240 239 234 233 230 224 222 223 223 216 209 207 206 208 208 205 203 201 198 196 200 209 216 215 205 196 196 194 190 186 179 171 167 161 158 158 153
260 263 263 263 260 259 260 261 262 263 266 268 270 273 278 283 286 289 290 291 292 292 291 290 289 288 285 284 284 285 285 286 287 288 288 288 287 286 283 278 274 270 264 257 248 241 238 238 240 240 237 234 231 227 225 227 225 217 211 209 207 208 207 205 202 200 200 199 204 212 216 218 211 198 194 195 194 191 186 179 174 169 164 165 162
257 260 261 260 257 257 258 258 259 261 263 266 269 273 279 283 287 289 289 290 291 291 290 289 289 287 285 283 282 282 283 284 285 286 286 286 286 284 281 277 272 266 261 256 247 241 238 237 238 240 241 238 235 230 228 229 228 221 215 215 212 208 206 203 200 199 201 203 207 214 216 218 215 204 195 195 197 196 193 187 180 175 171 170 169
256 259 259 256 254 254 255 256 258 259 262 265 269 274 279 284 287 289 289 291 291 291 290 289 288 287 284 281 281 281 281 282 283 284 285 285 284 282 280 276 271 263 255 252 247 240 238 237 238 239 242 243 242 237 233 232 230 225 219 219 216 211 206 201 199 199 203 205 207 213 219 220 219 212 201 197 199 199 198 194 187 181 176 174 174
253 256 255 252 252 252 253 254 257 259 261 265 268 275 280 285 287 289 290 291 291 291 290 289 288 286 283 280 279 279 280 281 281 282 282 282 282 280 279 274 269 261 250 246 246 242 238 237 237 239 242 244 247 244 239 236 233 229 224 221 220 216 208 200 197 199 204 206 205 211 219 221 220 217 207 201 202 202 201 199 195 188 182 178 178
248 251 250 248 249 249 252 254 256 258 261 264 270 277 282 286 287 289 290 290 290 291 291 290 289 286 282 279 277 278 279 280 280 280 280 280 279 278 276 272 267 261 250 242 243 242 240 240 239 238 240 243 246 248 244 241 236 232 229 225 223 220 212 203 197 199 203 205 206 209 216 220 220 221 215 207 205 206 205 203 201 195 189 182 180
243 244 243 244 245 247 251 253 255 257 261 266 273 279 284 287 288 289 289 289 290 290 291 289 287 284 281 278 276 277 278 279 279 279 278 278 277 276 273 267 263 261 253 243 241 241 242 243 242 239 239 241 243 249 249 244 240 235 232 230 228 222 216 207 199 199 203 205 209 208 211 217 219 222 221 215 210 210 210 207 206 202 196 189 184
236 236 237 240 242 247 250 252 256 259 265 271 277 282 285 288 289 289 289 289 289 290 290 288 285 282 279 277 277 277 279 280 279 278 276 277 276 275 270 263 260 259 253 243 238 239 243 246 247 244 240 239 240 246 250 247 242 238 234 232 231 224 219 213 202 200 204 207 211 210 208 212 216 219 220 218 214 214 214 212 211 208 203 196 190
226 230 234 239 243 247 250 254 259 264 270 275 280 284 286 289 289 289 289 289 289 289 288 286 284 280 278 277 278 279 280 280 279 278 276 276 275 274 269 261 258 257 253 243 237 237 242 246 249 248 243 241 240 241 246 247 243 239 236 233 232 228 220 216 208 200 202 209 213 213 211 210 213 217 219 218 216 217 217 216 215 212 209 203 198
220 230 235 239 244 247 252 257 262 267 272 278 282 286 287 288 289 290 290 289 287 287 286 285 283 280 278 278 281 281 281 280 279 277 276 276 275 273 268 260 256 255 251 244 239 238 241 246 249 250 247 243 241 240 241 244 244 240 237 234 232 230 223 218 212 202 199 210 216 217 215 213 214 217 220 219 217 218 219 220 219 216 214 210 204
219 230 236 241 246 249 254 259 263 268 274 280 284 286 287 288 288 288 287 286 285 284 284 283 281 279 279 281 282 282 280 279 277 276 275 276 275 272 268 259 254 252 248 244 242 242 244 247 249 249 247 243 239 239 239 241 244 241 237 235 233 230 225 219 214 206 201 209 218 218 219 218 217 220 222 222 220 218 219 221 222 220 218 215 210
239 239 243 244 247 249 255 260 265 271 277 281 283 286 287 287 286 286 285 284 284 282 282 280 279 279 281 283 282 281 279 279 277 276 275 274 273 271 267 259 252 251 248 246 245 246 248 250 250 248 245 242 237 236 237 238 240 242 239 236 234 230 227 221 214 208 203 209 219 218 218 222 222 223 224 225 224 221 220 221 223 223 222 220 215
267 249 247 245 247 251 258 262 268 273 277 281 282 285 285 285 284 284 284 283 282 280 280 279 280 282 283 283 280 278 277 277 276 276 275 273 271 269 265 258 253 252 251 251 250 250 250 252 251 248 244 241 236 234 234 236 237 240 241 239 236 232 227 224 215 207 205 210 219 219 216 221 224 225 226 226 226 225 224 223 224 225 224 224 221
269 252 249 248 252 256 262 265 270 274 277 281 282 283 283 285 285 284 283 282 281 279 280 282 285 286 284 281 278 276 274 273 273 273 273 271 270 266 263 259 256 256 256 257 256 254 251 250 250 247 243 240 237 234 233 233 235 236 239 241 238 234 229 225 217 207 206 210 217 220 217 219 223 225 226 228 227 227 227 226 226 226 226 226 225
265 258 253 254 258 260 265 267 272 276 279 281 281 282 284 286 287 285 283 281 282 282 283 285 286 284 282 279 277 276 274 272 271 271 270 268 267 264 261 259 257 257 258 258 257 256 253 251 248 244 241 238 237 235 233 232 233 234 236 239 238 236 233 226 218 208 208 210 214 219 219 218 222 224 225 227 228 228 229 229 229 228 227 227 227
262 261 258 258 260 263 267 270 274 277 279 281 280 283 285 286 285 284 282 282 283 283 284 284 283 282 282 281 279 279 276 273 270 269 268 266 264 261 259 259 258 258 258 259 258 257 255 253 247 241 237 235 236 235 234 233 232 232 233 236 236 236 235 229 219 210 209 211 214 218 221 220 221 224 225 225 227 228 229 229 230 230 231 230 228
259 259 259 259 259 263 268 272 275 277 281 281 282 284 284 283 282 282 283 284 282 281 283 283 282 281 282 281 280 280 278 275 272 268 265 264 263 259 257 257 258 259 259 260 259 258 255 253 249 241 235 231 232 234 234 234 233 232 231 234 235 234 234 231 223 214 210 212 214 217 221 221 221 223 225 225 226 227 229 229 229 229 232 233 232
255 254 256 257 258 261 266 272 275 279 282 281 283 284 283 282 281 283 285 283 280 279 280 281 281 280 279 280 280 280 279 276 273 269 264 262 262 258 256 255 256 258 259 259 258 255 252 251 248 240 233 229 229 232 234 234 234 233 232 232 234 234 232 231 227 219 213 213 214 216 219 222 221 222 224 224 226 227 228 228 227 226 228 231 233
249 250 252 253 258 263 268 272 277 281 282 282 283 283 283 282 282 284 284 281 278 277 278 278 279 278 277 277 277 279 280 276 271 270 265 259 257 256 255 255 255 256 257 258 257 254 252 248 244 238 232 230 229 231 235 235 234 235 235 233 233 235 233 231 229 225 220 218 217 216 218 222 222 222 223 224 225 227 229 228 227 226 225 227 230
247 250 250 254 262 268 272 274 278 282 284 285 284 283 283 283 284 286 282 279 279 277 277 277 277 277 276 276 277 278 279 275 270 270 264 253 250 251 252 253 254 256 257 258 257 253 251 247 243 238 233 232 231 233 237 236 234 235 237 237 235 236 237 233 229 225 224 225 223 220 219 221 223 224 225 225 226 228 230 231 231 229 227 226 227
243 246 250 259 269 272 276 279 282 285 288 289 286 286 285 285 285 284 282 280 280 279 277 278 278 278 276 276 277 277 277 273 266 262 258 250 246 247 249 253 255 258 259 257 255 252 251 249 244 239 234 233 233 233 236 234 232 234 235 237 238 239 241 238 230 224 222 227 230 227 222 221 224 226 226 226 226 228 231 233 234 233 230 228 228
231 239 252 263 272 276 280 282 285 288 289 290 289 287 285 285 285 283 283 281 281 281 280 280 279 278 276 275 277 275 272 269 263 256 252 251 250 249 249 250 253 255 256 255 254 253 253 251 247 242 238 236 236 236 235 233 232 234 234 235 237 241 245 243 235 226 221 224 230 232 229 224 224 226 228 228 227 227 229 232 234 234 233 231 230
219 235 252 261 273 280 281 283 284 287 289 289 288 287 287 286 286 285 283 283 282 282 282 283 282 280 278 277 277 274 267 262 259 253 248 249 247 246 246 247 250 249 251 252 253 254 254 253 251 248 243 240 240 239 238 237 236 235 234 234 235 238 244 245 240 231 225 223 224 229 233 230 228 227 229 230 227 226 226 228 231 232 232 231 231
218 235 254 270 283 285 283 284 286 288 288 288 288 289 292 291 289 287 284 285 285 284 285 286 286 284 283 280 277 272 263 257 252 248 244 242 240 241 245 249 250 248 249 249 250 254 255 253 253 253 249 246 245 244 242 241 241 240 237 235 235 237 241 244 243 237 231 228 225 225 230 233 232 231 230 231 229 226 225 226 228 229 230 229 230
235 245 267 283 289 288 286 287 288 289 287 286 290 291 294 294 293 290 287 287 288 290 289 289 288 286 286 284 278 269 258 252 246 244 242 240 241 242 244 247 248 248 248 248 247 251 255 255 255 254 251 248 248 249 248 246 244 243 241 236 235 237 240 244 244 240 235 232 228 224 226 231 235 235 233 233 231 228 227 226 227 228 229 229 230
254 261 278 286 289 289 286 286 286 290 292 292 293 294 296 296 297 295 292 290 290 292 294 296 295 290 288 285 280 270 256 249 242 239 237 237 240 241 241 243 245 245 246 247 247 251 258 261 259 257 255 249 245 247 249 248 246 245 243 239 236 237 240 243 245 242 238 235 229 225 225 228 232 235 235 235 233 231 229 228 228 229 230 230 230
251 267 281 283 285 289 288 288 290 294 296 296 294 295 295 295 297 298 295 294 292 292 295 300 301 296 291 286 281 274 263 254 245 238 232 229 233 236 238 239 241 243 244 245 248 252 259 262 261 260 258 252 245 247 249 247 246 246 245 243 239 239 241 244 247 246 244 241 233 227 226 227 229 232 235 236 236 234 231 229 229 230 231 231 231
246 266 282 283 282 286 290 294 296 297 296 296 295 294 295 294 295 297 296 296 296 296 298 302 303 302 298 290 282 275 266 258 251 247 241 233 232 236 239 239 241 245 245 247 251 256 259 262 264 260 255 250 245 248 252 250 249 248 246 246 244 243 243 244 247 247 245 245 239 230 228 228 229 231 233 235 237 236 234 232 231 231 232 232 232
249 271 282 282 281 284 288 292 294 296 296 295 296 295 295 294 294 297 296 294 295 297 299 302 302 302 299 291 282 275 265 258 252 251 253 252 246 247 249 250 251 250 251 253 256 262 264 264 263 256 252 252 249 250 254 256 254 251 248 248 248 247 246 246 248 249 246 245 243 236 231 229 230 231 232 232 234 236 237 235 233 233 233 234 234
242 265 277 283 287 289 291 294 295 297 298 297 296 294 292 291 292 295 296 295 293 294 297 299 298 297 293 286 280 274 268 265 262 258 261 268 260 255 261 266 268 264 262 263 262 263 264 263 261 257 256 259 257 252 252 254 255 254 252 251 250 249 247 246 247 249 248 247 245 243 238 233 231 231 232 232 233 234 237 237 235 234 234 235 236
242 264 276 286 291 294 298 299 302 302 301 300 298 295 291 289 290 293 296 296 294 292 295 296 294 291 288 285 282 276 273 272 273 271 271 276 272 268 270 275 280 277 272 274 272 265 263 264 264 262 262 263 261 255 252 254 257 257 254 252 251 251 250 246 246 248 249 248 245 245 245 240 233 230 231 232 232 232 235 237 236 235 236 236 237
249 268 275 285 289 294 298 299 301 299 298 299 301 300 295 291 289 289 292 295 296 295 294 294 291 288 285 284 283 281 280 277 275 275 276 279 281 282 280 280 284 283 280 283 280 272 270 271 268 266 265 265 264 259 257 260 263 262 259 256 253 255 254 250 247 248 249 248 244 244 246 244 236 230 229 231 232 231 234 236 236 237 237 236 237
257 267 272 280 285 290 293 292 292 290 292 297 300 301 297 295 293 290 288 288 293 297 298 297 293 290 287 285 284 283 284 281 276 273 274 277 281 284 286 285 285 284 286 287 283 279 280 279 273 269 268 267 266 262 261 263 266 267 266 262 255 253 253 251 249 246 246 246 244 243 243 242 236 229 228 231 232 232 232 235 236 237 237 237 238
270 268 271 277 281 284 286 284 283 284 289 293 295 298 298 299 298 295 291 286 286 290 295 298 296 293 290 287 285 283 282 281 279 276 274 275 278 283 286 286 285 284 285 285 283 281 282 282 279 274 271 271 270 265 264 266 268 269 270 264 255 250 249 250 250 248 246 245 244 243 241 237 230 226 227 230 232 232 232 235 238 238 237 238 239
281 273 272 276 276 277 279 278 280 283 288 290 292 296 297 298 298 296 294 290 287 285 287 291 293 293 291 289 287 284 282 280 281 280 280 279 280 281 281 283 283 282 282 281 281 280 279 280 279 279 278 276 273 267 267 270 270 269 268 265 259 256 254 253 255 254 249 245 243 241 239 235 227 223 226 229 231 231 232 236 238 239 238 238 239
280 274 272 274 270 270 273 275 281 284 287 289 290 293 294 297 298 297 296 294 292 290 289 288 288 290 291 291 290 288 285 282 281 280 280 281 281 280 280 281 282 281 281 279 279 278 277 276 275 276 277 272 266 265 269 272 272 270 269 267 264 263 263 264 267 262 253 249 246 242 237 233 228 225 226 228 230 232 233 235 237 240 241 240 241
275 272 272 269 263 266 270 274 282 284 285 288 290 292 294 298 300 300 300 298 297 295 295 292 290 290 291 293 293 292 291 288 285 282 280 279 279 280 281 281 281 281 280 278 277 277 276 276 275 274 274 271 265 266 271 272 271 272 272 271 268 265 266 269 272 268 262 260 254 245 239 235 231 228 228 228 231 234 236 237 238 240 242 242 244
272 271 271 268 266 269 270 275 280 282 285 287 290 294 294 297 300 301 301 300 298 296 295 294 293 292 292 293 294 294 294 292 290 287 285 283 282 282 282 281 281 281 279 277 276 275 275 275 275 274 275 274 270 269 271 270 270 272 272 271 270 269 269 269 270 268 268 270 265 253 245 242 237 232 229 229 230 233 237 239 240 241 242 242 243
270 266 267 276 282 278 272 276 280 281 285 286 290 295 295 296 295 295 296 297 297 295 294 294 293 292 292 292 292 292 293 292 292 291 291 289 287 286 285 284 284 282 281 279 276 275 274 273 274 274 274 274 273 272 272 269 268 269 269 269 269 269 271 271 269 268 268 268 270 268 263 257 248 239 235 232 231 232 235 238 240 241 242 243 242
270 264 265 279 287 284 277 277 280 283 285 286 290 294 295 297 297 296 296 298 298 295 294 293 291 291 291 290 290 290 290 290 291 291 292 292 291 290 289 288 287 284 282 280 277 275 273 272 271 271 271 272 272 273 273 271 268 266 266 266 266 267 269 272 271 269 270 268 266 267 267 267 261 248 241 240 237 236 236 237 238 240 242 242 243
268 264 264 271 280 283 279 276 280 284 286 289 292 295 296 298 299 299 298 300 302 300 297 294 291 289 288 289 289 288 288 288 288 289 289 290 290 289 289 289 287 285 282 279 277 274 271 269 268 267 267 268 269 270 271 271 269 267 265 265 265 266 267 269 271 271 271 269 265 264 262 264 268 264 254 250 246 243 241 240 238 238 239 240 242
266 264 260 263 273 278 277 277 280 284 287 289 292 295 296 297 299 300 299 300 303 303 301 298 295 290 287 287 286 286 286 285 285 286 286 286 286 286 286 286 285 282 279 277 275 272 268 265 263 262 263 264 265 266 268 268 268 267 267 267 266 265 265 265 267 269 270 270 267 264 263 264 268 267 262 263 260 253 247 244 241 238 236 237 239
266 266 263 263 267 271 275 279 281 282 285 288 292 294 295 296 297 298 298 300 303 305 304 302 298 293 288 285 284 284 283 283 283 283 284 284 284 283 282 281 280 278 275 273 271 268 265 262 259 258 258 260 262 264 265 266 267 268 266 267 267 265 263 262 262 262 262 265 265 263 263 264 264 260 261 269 270 263 253 246 243 241 239 237 237
268 268 267 264 265 270 274 279 282 283 283 286 291 293 294 295 296 297 299 300 303 305 304 301 298 292 288 283 281 281 281 281 282 281 281 281 281 281 280 279 276 274 272 270 268 265 263 261 259 257 256 256 259 262 264 264 265 266 265 264 265 265 262 261 259 258 258 260 260 260 261 260 258 261 270 275 270 268 265 253 244 241 241 240 239
266 264 263 263 268 271 271 274 281 285 284 287 291 293 294 294 294 296 299 301 302 303 301 297 294 290 286 282 280 279 279 279 280 280 279 278 277 277 277 276 275 273 272 270 268 264 261 260 260 260 258 257 259 262 264 265 265 266 266 263 262 262 260 259 258 258 258 260 260 261 262 261 260 264 270 271 266 266 271 268 253 243 241 243 244
263 261 262 267 272 271 270 271 275 282 285 287 289 291 293 292 292 293 295 300 300 299 295 290 288 286 283 281 279 279 280 280 280 281 281 279 277 276 275 275 274 273 272 270 269 267 263 261 260 260 260 260 261 264 266 267 267 268 267 264 261 260 258 256 257 258 260 261 262 262 262 261 261 263 265 265 264 266 267 267 263 252 245 245 248
Height
5862 5862 5861 5862 5861 5861 5861 5861 5862 5863 5863 5863 5863 5863 5863 5863 5862 5862 5862 5861 5860 5860 5859 5859 5858 5857 5856 5856 5855 5855 5855 5855 5854 5854 5854 5853 5853 5852 5852 5852 5852 5852 5852 5852 5853 5853 5853 5853 5853 5854 5854 5854 5854 5854 5854 5854 5854 5854 5854 5854 5855 5857 5858 5859 5859 5860 5861 5861 5861 5862 5862 5862 5862 5862 5862 5862 5862 5863 5863 5863 5863 5864 5864 5863 5864
5860 5860 5859 5860 5859 5859 5859 5859 5860 5861 5861 5861 5861 5861 5861 5861 5861 5861 5860 5859 5859 5858 5858 5857 5857 5856 5855 5854 5854 5854 5854 5853 5853 5853 5853 5852 5852 5851 5851 5851 5851 5851 5851 5851 5852 5852 5852 5853 5853 5853 5853 5853 5854 5854 5854 5854 5853 5853 5853 5854 5855 5856 5857 5858 5859 5859 5860 5860 5861 5861 5862 5862 5862 5862 5862 5862 5862 5863 5863 5863 5864 5864 5864 5864 5864
5858 5858 5857 5857 5857 5857 5857 5858 5858 5859 5860 5859 5859 5859 5859 5859 5859 5859 5858 5858 5857 5857 5856 5856 5855 5854 5854 5853 5853 5852 5852 5852 5852 5852 5852 5851 5851 5850 5850 5850 5850 5850 5850 5850 5851 5851 5851 5852 5852 5852 5852 5853 5853 5853 5853 5853 5853 5852 5853 5854 5855 5856 5857 5857 5858 5859 5860 5860 5861 5861 5861 5862 5862 5862 5862 5862 5862 5863 5863 5863 5864 5864 5864 5864 5864
5856 5856 5855 5855 5855 5855 5855 5856 5857 5857 5857 5858 5858 5857 5858 5858 5858 5857 5857 5856 5856 5855 5855 5854 5853 5853 5852 5852 5851 5851 5851 5851 5850 5850 5850 5850 5850 5849 5849 5848 5848 5849 5849 5849 5850 5850 5851 5851 5851 5851 5852 5852 5852 5853 5852 5852 5852 5852 5853 5854 5854 5855 5856 5857 5858 5858 5859 5860 5860 5861 5861 5861 5862 5862 5862 5862 5862 5863 5863 5864 5864 5864 5865 5865 5865
5853 5853 5853 5852 5853 5853 5853 5854 5855 5855 5855 5855 5855 5855 5855 5856 5856 5855 5855 5854 5854 5853 5853 5852 5852 5851 5851 5850 5850 5850 5849 5849 5849 5849 5849 5849 5849 5848 5848 5847 5847 5848 5848 5848 5849 5849 5850 5850 5851 5851 5851 5852 5852 5852 5852 5851 5851 5852 5853 5853 5854 5854 5855 5856 5857 5858 5859 5860 5860 5861 5861 5861 5861 5861 5861 5862 5862 5863 5863 5863 5864 5865 5865 5865 5865
5850 5850 5850 5850 5851 5851 5851 5852 5853 5853 5853 5853 5853 5853 5853 5853 5853 5853 5853 5852 5852 5851 5851 5851 5850 5850 5849 5849 5849 5848 5848 5848 5847 5847 5847 5847 5847 5847 5847 5846 5846 5846 5847 5847 5848 5848 5849 5850 5850 5850 5850 5851 5851 5851 5851 5850 5851 5851 5852 5852 5853 5853 5854 5856 5857 5858 5859 5860 5860 5860 5860 5860 5861 5861 5861 5862 5862 5862 5863 5863 5864 5865 5865 5865 5865
5846 5847 5847 5848 5848 5849 5849 5850 5850 5851 5851 5851 5851 5851 5851 5851 5851 5851 5851 5850 5850 5849 5849 5849 5849 5848 5848 5848 5847 5847 5847 5846 5846 5846 5846 5846 5846 5846 5845 5845 5845 5845 5846 5846 5847 5847 5848 5849 5849 5850 5850 5850 5850 5850 5850 5850 5850 5851 5851 5852 5852 5852 5854 5855 5857 5858 5859 5859 5859 5859 5859 5860 5860 5861 5861 5861 5862 5862 5863 5863 5864 5864 5865 5865 5865
5843 5844 5844 5845 5846 5846 5847 5847 5848 5848 5849 5849 5849 5849 5849 5849 5849 5849 5849 5848 5848 5848 5847 5847 5847 5847 5846 5846 5846 5845 5845 5845 5845 5845 5844 5844 5844 5844 5844 5844 5844 5845 5845 5845 5846 5846 5847 5848 5848 5849 5849 5850 5850 5850 5849 5849 5850 5851 5851 5851 5852 5852 5853 5855 5857 5857 5858 5858 5858 5859 5859 5859 5860 5861 5861 5861 5862 5862 5863 5863 5863 5864 5865 5865 5865
5840 5841 5841 5842 5843 5843 5844 5845 5846 5846 5846 5847 5847 5847 5847 5847 5847 5847 5847 5847 5846 5846 5846 5845 5845 5845 5845 5844 5844 5844 5843 5843 5843 5843 5843 5843 5843 5842 5842 5843 5843 5843 5844 5844 5845 5845 5846 5847 5848 5848 5849 5849 5849 5849 5849 5849 5850 5851 5851 5851 5851 5851 5853 5854 5856 5857 5857 5857 5858 5858 5859 5859 5860 5860 5861 5861 5861 5862 5862 5863 5863 5863 5864 5865 5865
5836 5837 5838 5839 5840 5840 5841 5842 5843 5844 5844 5845 5845 5845 5845 5845 5845 5845 5845 5845 5844 5844 5844 5844 5843 5843 5843 5842 5842 5842 5842 5842 5842 5842 5842 5841 5841 5841 5841 5841 5841 5842 5843 5843 5844 5845 5845 5846 5847 5848 5848 5849 5849 5849 5848 5849 5850 5850 5851 5851 5851 5851 5852 5854 5855 5856 5856 5857 5857 5858 5858 5859 5860 5860 5861 5861 5861 5861 5862 5862 5862 5863 5863 5864 5864
5833 5834 5835 5836 5837 5837 5839 5840 5841 5842 5842 5843 5843 5843 5843 5843 5843 5843 5843 5843 5843 5842 5842 5842 5841 5841 5841 5840 5840 5840 5840 5841 5841 5841 5840 5840 5840 5839 5839 5840 5840 5841 5842 5843 5843 5844 5844 5845 5845 5846 5847 5848 5848 5848 5848 5849 5850 5850 5851 5850 5850 5851 5852 5853 5854 5855 5855 5856 5856 5856 5858 5858 5859 5860 5860 5861 5861 5861 5861 5862 5862 5862 5863 5863 5864
5829 5831 5832 5833 5834 5835 5836 5838 5839 5840 5840 5841 5841 5841 5841 5842 5842 5842 5841 5841 5840 5840 5840 5840 5839 5839 5838 5838 5838 5839 5839 5839 5839 5839 5839 5839 5838 5838 5838 5838 5839 5840 5841 5842 5843 5843 5843 5843 5844 5845 5846 5847 5847 5848 5848 5848 5849 5850 5850 5850 5850 5851 5852 5852 5854 5854 5855 5855 5855 5856 5857 5858 5859 5860 5860 5860 5861 5861 5861 5861 5862 5862 5862 5863 5863
5827 5829 5831 5831 5832 5833 5834 5836 5837 5838 5838 5839 5839 5839 5840 5840 5840 5840 5839 5839 5838 5838 5838 5838 5837 5837 5836 5836 5837 5837 5838 5838 5838 5837 5837 5837 5837 5837 5837 5837 5838 5839 5840 5841 5841 5842 5842 5842 5842 5843 5845 5846 5846 5847 5847 5847 5848 5848 5849 5849 5849 5850 5851 5852 5853 5854 5854 5855 5855 5856 5856 5857 5858 5859 5859 5860 5860 5861 5861 5861 5861 5862 5862 5862 5863
5826 5828 5829 5829 5830 5831 5832 5834 5835 5836 5837 5837 5837 5837 5837 5837 5838 5838 5837 5837 5836 5836 5835 5835 5835 5834 5834 5834 5835 5836 5836 5836 5836 5836 5836 5835 5835 5835 5836 5836 5837 5837 5838 5839 5840 5840 5840 5840 5841 5842 5843 5844 5845 5846 5846 5846 5847 5847 5848 5848 5848 5849 5850 5851 5852 5853 5854 5854 5854 5855 5856 5856 5857 5858 5858 5859 5860 5860 5860 5860 5861 5862 5862 5862 5863
5824 5826 5827 5827 5828 5829 5830 5832 5833 5834 5835 5835 5835 5835 5835 5835 5835 5835 5835 5835 5834 5833 5833 5833 5832 5832 5832 5833 5834 5834 5834 5834 5834 5833 5834 5834 5834 5834 5834 5834 5835 5835 5836 5837 5838 5839 5839 5839 5839 5840 5841 5843 5844 5844 5845 5845 5845 5846 5846 5847 5847 5848 5850 5850 5852 5853 5853 5853 5853 5854 5855 5856 5856 5857 5857 5858 5859 5860 5860 5860 5860 5861 5862 5862 5863
5822 5823 5824 5825 5826 5827 5828 5830 5830 5832 5832 5833 5833 5833 5833 5833 5833 5833 5833 5832 5831 5831 5830 5830 5829 5829 5830 5831 5832 5832 5832 5831 5831 5831 5832 5832 5832 5832 5832 5832 5833 5833 5834 5835 5836 5837 5837 5838 5838 5838 5839 5841 5842 5842 5843 5844 5844 5845 5845 5846 5846 5847 5848 5849 5851 5852 5853 5852 5852 5853 5855 5856 5856 5857 5857 5857 5858 5859 5859 5860 5860 5861 5861 5862 5862
5819 5820 5822 5823 5824 5825 5827 5828 5828 5829 5830 5830 5830 5830 5831 5830 5830 5830 5830 5829 5829 5828 5828 5827 5827 5827 5828 5829 5829 5829 5829 5829 5829 5829 5830 5830 5830 5830 5830 5831 5831 5832 5833 5833 5834 5835 5836 5836 5836 5836 5837 5838 5840 5841 5841 5842 5843 5843 5843 5844 5845 5846 5847 5848 5850 5852 5852 5851 5851 5852 5854 5855 5856 5856 5856 5857 5857 5858 5859 5859 5859 5860 5861 5861 5862
5817 5818 5820 5821 5823 5824 5825 5826 5826 5827 5827 5827 5828 5828 5828 5828 5828 5827 5827 5826 5826 5826 5826 5825 5824 5825 5826 5826 5826 5826 5826 5826 5826 5827 5827 5828 5828 5828 5828 5829 5829 5830 5831 5832 5833 5834 5834 5834 5834 5834 5835 5836 5837 5839 5839 5840 5841 5842 5842 5842 5843 5844 5846 5847 5849 5851 5851 5851 5850 5851 5853 5854 5855 5855 5855 5856 5856 5857 5858 5858 5859 5859 5860 5861 5861
5816 5817 5819 5820 5821 5822 5823 5824 5824 5825 5825 5825 5826 5826 5826 5826 5825 5825 5824 5823 5824 5824 5824 5823 5823 5823 5823 5823 5823 5823 5823 5824 5824 5825 5825 5826 5826 5826 5827 5827 5827 5828 5829 5830 5830 5831 5832 5832 5832 5833 5833 5834 5835 5836 5837 5838 5839 5840 5840 5841 5842 5843 5844 5845 5847 5849 5850 5850 5849 5850 5852 5853 5853 5854 5854 5855 5855 5856 5857 5858 5858 5859 5859 5860 5861
5816 5816 5818 5818 5820 5821 5821 5822 5822 5823 5823 5824 5824 5824 5824 5824 5823 5822 5821 5821 5822 5823 5822 5821 5820 5820 5821 5821 5821 5821 5821 5822 5823 5823 5824 5824 5824 5824 5825 5825 5825 5826 5826 5827 5828 5828 5829 5829 5830 5830 5831 5831 5833 5834 5835 5836 5837 5837 5838 5839 5840 5841 5842 5843 5846 5848 5848 5849 5848 5849 5851 5852 5852 5853 5853 5853 5854 5855 5856 5857 5858 5858 5859 5859 5860
5814 5815 5816 5817 5818 5819 5820 5820 5820 5821 5822 5822 5821 5822 5822 5821 5821 5820 5819 5820 5821 5821 5819 5818 5817 5818 5818 5819 5819 5820 5820 5820 5821 5822 5822 5822 5822 5822 5822 5822 5823 5823 5824 5824 5825 5825 5826 5827 5827 5828 5828 5829 5830 5832 5833 5833 5834 5835 5836 5836 5837 5839 5840 5842 5845 5846 5846 5847 5847 5848 5849 5850 5851 5852 5852 5852 5853 5853 5855 5856 5857 5858 5858 5859 5859
5813 5813 5814 5815 5817 5817 5818 5818 5819 5820 5820 5820 5819 5819 5819 5819 5818 5818 5818 5819 5818 5818 5817 5815 5815 5816 5816 5816 5817 5818 5818 5819 5819 5820 5820 5820 5820 5820 5820 5821 5821 5821 5821 5822 5823 5823 5824 5824 5825 5825 5826 5827 5828 5829 5830 5831 5831 5832 5833 5834 5835 5836 5838 5840 5843 5844 5844 5845 5846 5847 5848 5849 5850 5850 5851 5851 5851 5852 5853 5854 5855 5857 5858 5858 5858
5810 5811 5812 5814 5815 5816 5816 5817 5817 5818 5818 5817 5817 5817 5816 5816 5816 5816 5817 5816 5815 5816 5815 5813 5813 5814 5814 5814 5815 5816 5816 5817 5817 5818 5818 5818 5818 5818 5819 5819 5819 5819 5819 5820 5820 5821 5822 5822 5823 5823 5824 5825 5826 5827 5828 5828 5829 5829 5830 5831 5833 5834 5835 5838 5841 5842 5842 5843 5843 5845 5846 5847 5848 5849 5849 5850 5850 5851 5851 5852 5854 5855 5856 5857 5857
5807 5809 5811 5813 5813 5814 5814 5815 5815 5815 5815 5815 5815 5814 5814 5814 5813 5815 5815 5813 5812 5813 5813 5811 5810 5811 5812 5812 5813 5813 5814 5815 5815 5815 5815 5815 5816 5816 5816 5817 5817 5817 5817 5818 5818 5819 5819 5820 5820 5821 5822 5823 5824 5825 5826 5826 5827 5827 5828 5829 5830 5831 5832 5835 5838 5841 5841 5841 5841 5842 5843 5845 5846 5847 5847 5848 5849 5849 5850 5851 5852 5853 5854 5855 5856
5805 5807 5809 5811 5811 5811 5812 5812 5813 5812 5813 5813 5812 5812 5811 5811 5811 5812 5812 5810 5810 5811 5810 5809 5807 5808 5809 5810 5811 5811 5812 5812 5813 5813 5813 5813 5813 5814 5814 5814 5815 5815 5816 5816 5816 5817 5817 5817 5818 5819 5820 5821 5822 5823 5824 5824 5825 5825 5826 5827 5828 5828 5830 5832 5836 5838 5839 5839 5840 5840 5841 5843 5844 5845 5846 5847 5847 5848 5849 5850 5851 5852 5853 5854 5855
5802 5805 5807 5808 5808 5808 5809 5809 5810 5810 5810 5810 5809 5809 5809 5809 5809 5810 5810 5808 5808 5807 5808 5807 5805 5805 5806 5807 5809 5809 5810 5810 5811 5811 5811 5811 5811 5811 5812 5812 5813 5814 5814 5814 5814 5814 5815 5815 5816 5817 5818 5819 5820 5821 5822 5822 5823 5823 5824 5825 5826 5826 5827 5830 5833 5835 5836 5837 5838 5838 5839 5840 5842 5843 5844 5845 5846 5847 5848 5849 5850 5851 5852 5853 5853
5799 5802 5805 5806 5806 5806 5806 5806 5806 5807 5807 5807 5807 5806 5806 5807 5807 5807 5807 5806 5805 5805 5805 5804 5804 5804 5804 5804 5806 5807 5808 5809 5809 5809 5809 5809 5809 5809 5809 5810 5811 5812 5812 5812 5812 5812 5812 5812 5813 5815 5816 5817 5818 5819 5820 5820 5821 5821 5822 5823 5823 5824 5824 5827 5830 5832 5833 5834 5836 5836 5837 5838 5839 5841 5842 5843 5844 5845 5846 5847 5848 5850 5851 5852 5852
5796 5799 5802 5803 5803 5803 5803 5804 5804 5805 5804 5804 5804 5804 5804 5804 5805 5805 5804 5803 5803 5802 5802 5801 5801 5802 5802 5802 5803 5805 5806 5807 5807 5807 5807 5807 5807 5807 5807 5808 5810 5810 5809 5809 5810 5810 5810 5810 5811 5813 5814 5815 5816 5817 5818 5819 5819 5819 5820 5820 5821 5821 5822 5824 5827 5829 5830 5831 5832 5834 5835 5836 5837 5838 5839 5840 5842 5843 5844 5845 5846 5847 5849 5850 5850
5793 5796 5799 5800 5801 5801 5801 5802 5802 5803 5803 5802 5802 5802 5801 5802 5802 5802 5802 5801 5800 5800 5800 5799 5799 5800 5800 5800 5801 5802 5803 5804 5804 5804 5805 5805 5805 5806 5806 5807 5808 5808 5808 5808 5808 5808 5808 5808 5810 5811 5812 5814 5815 5815 5816 5817 5817 5817 5818 5818 5819 5819 5820 5821 5823 5826 5828 5828 5830 5831 5832 5834 5835 5836 5837 5837 5839 5840 5841 5842 5843 5845 5846 5847 5848
5790 5793 5796 5797 5798 5799 5799 5799 5800 5800 5800 5800 5800 5800 5799 5799 5800 5800 5800 5799 5798 5797 5797 5797 5797 5798 5798 5798 5799 5800 5801 5801 5801 5802 5802 5803 5803 5804 5804 5805 5805 5806 5806 5806 5806 5805 5805 5806 5807 5808 5810 5811 5813 5814 5814 5815 5815 5814 5815 5816 5817 5817 5817 5818 5820 5823 5824 5825 5827 5828 5830 5831 5832 5833 5834 5835 5836 5838 5839 5840 5841 5842 5843 5845 5846
5788 5791 5794 5795 5796 5796 5797 5798 5797 5797 5797 5797 5798 5797 5797 5797 5797 5797 5798 5797 5796 5795 5795 5795 5795 5795 5796 5796 5797 5798 5799 5799 5799 5799 5799 5800 5801 5802 5803 5803 5804 5804 5805 5805 5805 5804 5805 5805 5806 5806 5807 5808 5810 5810 5811 5812 5812 5812 5813 5814 5814 5815 5815 5816 5817 5820 5821 5822 5823 5825 5826 5828 5829 5830 5831 5832 5834 5835 5836 5837 5838 5839 5841 5842 5844
5787 5789 5792 5793 5794 5794 5794 5795 5795 5795 5794 5795 5795 5795 5795 5795 5795 5795 5795 5795 5794 5794 5794 5793 5793 5793 5794 5794 5795 5796 5796 5797 5796 5796 5795 5796 5798 5799 5801 5802 5802 5802 5803 5803 5803 5804 5804 5805 5805 5805 5805 5806 5807 5807 5808 5809 5810 5811 5811 5811 5812 5812 5813 5814 5815 5817 5819 5819 5820 5821 5823 5825 5826 5827 5828 5829 5830 5832 5833 5835 5836 5837 5838 5839 5841
5785 5787 5790 5791 5793 5792 5792 5793 5793 5793 5793 5793 5793 5793 5793 5793 5793 5793 5793 5793 5792 5792 5791 5791 5791 5791 5792 5792 5793 5793 5794 5794 5794 5794 5793 5793 5794 5797 5799 5800 5801 5801 5801 5802 5802 5802 5803 5803 5803 5803 5804 5804 5805 5805 5806 5808 5808 5809 5809 5809 5809 5810 5811 5811 5812 5815 5816 5816 5817 5818 5820 5821 5823 5824 5825 5826 5827 5829 5830 5832 5833 5834 5835 5836 5838
5783 5786 5788 5789 5791 5791 5792 5792 5792 5792 5792 5792 5792 5791 5790 5790 5791 5790 5790 5791 5790 5790 5789 5789 5789 5789 5790 5790 5790 5791 5791 5791 5792 5793 5793 5794 5795 5797 5798 5799 5800 5800 5800 5800 5800 5801 5801 5801 5801 5802 5802 5802 5803 5804 5805 5806 5807 5807 5807 5807 5807 5808 5808 5810 5810 5812 5814 5814 5814 5816 5817 5818 5820 5821 5822 5823 5824 5825 5827 5828 5830 5831 5832 5833 5834
5783 5784 5787 5787 5789 5789 5790 5790 5790 5790 5789 5790 5790 5789 5788 5788 5789 5788 5788 5789 5789 5788 5787 5787 5787 5788 5788 5788 5788 5789 5789 5789 5790 5791 5792 5794 5796 5797 5797 5798 5798 5798 5798 5798 5798 5799 5799 5799 5799 5800 5801 5801 5802 5802 5803 5803 5804 5805 5806 5805 5805 5805 5806 5808 5808 5809 5811 5812 5812 5813 5814 5815 5816 5818 5819 5820 5821 5822 5824 5825 5827 5828 5829 5830 5832
5782 5783 5785 5785 5786 5786 5787 5787 5787 5786 5785 5786 5786 5786 5786 5786 5787 5786 5786 5786 5786 5786 5786 5786 5786 5786 5786 5786 5786 5787 5787 5788 5788 5789 5791 5792 5794 5795 5796 5796 5797 5797 5797 5796 5797 5797 5797 5797 5798 5798 5798 5798 5799 5799 5800 5800 5801 5802 5804 5804 5803 5802 5803 5805 5806 5806 5807 5809 5810 5810 5811 5812 5813 5815 5817 5818 5819 5820 5821 5822 5824 5825 5826 5828 5829
5780 5781 5782 5783 5783 5784 5784 5784 5784 5784 5783 5782 5783 5783 5784 5784 5784 5784 5784 5784 5784 5784 5784 5784 5784 5784 5784 5784 5785 5785 5786 5787 5787 5787 5788 5790 5791 5792 5794 5794 5795 5795 5795 5795 5795 5795 5795 5796 5796 5795 5794 5795 5795 5796 5797 5798 5798 5799 5801 5801 5801 5800 5801 5802 5802 5802 5803 5805 5807 5807 5808 5808 5809 5811 5814 5815 5816 5817 5818 5820 5821 5823 5824 5825 5826
5778 5779 5780 5781 5782 5782 5783 5783 5782 5782 5781 5781 5781 5781 5782 5782 5782 5782 5782 5783 5783 5782 5782 5781 5782 5782 5782 5782 5783 5783 5784 5785 5785 5785 5786 5787 5788 5789 5790 5791 5792 5793 5793 5793 5793 5793 5793 5793 5793 5792 5791 5792 5792 5793 5795 5796 5796 5796 5797 5798 5798 5798 5798 5798 5798 5799 5800 5801 5803 5804 5805 5804 5805 5808 5811 5812 5813 5814 5816 5818 5819 5820 5821 5822 5823
5777 5778 5779 5780 5780 5781 5781 5781 5780 5780 5780 5781 5781 5781 5780 5780 5779 5779 5779 5780 5781 5781 5780 5779 5779 5780 5780 5780 5780 5781 5781 5781 5782 5783 5784 5785 5786 5787 5787 5788 5789 5790 5790 5790 5790 5791 5791 5791 5791 5790 5789 5790 5791 5792 5793 5794 5794 5794 5794 5795 5795 5795 5795 5795 5795 5796 5797 5798 5799 5800 5801 5801 5802 5804 5807 5809 5810 5812 5814 5815 5816 5817 5818 5819 5821
5777 5777 5778 5779 5779 5779 5779 5779 5778 5779 5779 5779 5780 5779 5779 5779 5778 5777 5777 5777 5778 5778 5779 5778 5778 5778 5778 5778 5778 5778 5778 5779 5779 5780 5781 5782 5783 5784 5785 5785 5786 5787 5788 5788 5789 5789 5789 5789 5789 5788 5788 5789 5790 5790 5791 5791 5791 5792 5793 5793 5793 5792 5792 5792 5793 5793 5794 5795 5796 5796 5797 5798 5799 5801 5803 5805 5808 5809 5810 5812 5813 5815 5816 5816 5818
5776 5776 5777 5777 5777 5777 5777 5776 5776 5777 5777 5777 5778 5778 5778 5777 5777 5776 5775 5775 5775 5775 5776 5776 5776 5776 5775 5775 5775 5776 5776 5776 5777 5777 5778 5779 5780 5781 5782 5783 5783 5784 5785 5785 5786 5786 5786 5787 5787 5786 5786 5787 5787 5788 5789 5789 5789 5789 5790 5790 5790 5790 5790 5790 5791 5791 5792 5792 5793 5793 5794 5795 5796 5799 5800 5803 5805 5806 5807 5809 5810 5812 5813 5814 5815
5774 5775 5775 5775 5775 5774 5774 5774 5775 5775 5775 5775 5776 5776 5776 5776 5775 5774 5773 5773 5773 5773 5773 5773 5773 5773 5773 5773 5773 5773 5773 5773 5773 5774 5775 5776 5777 5777 5778 5779 5780 5781 5782 5782 5782 5783 5783 5784 5783 5783 5783 5784 5784 5785 5786 5786 5786 5786 5787 5787 5787 5787 5787 5788 5789 5789 5790 5790 5790 5790 5791 5792 5793 5795 5797 5800 5802 5802 5804 5806 5807 5809 5810 5811 5813
5772 5773 5773 5773 5773 5772 5771 5772 5772 5773 5773 5773 5774 5774 5774 5774 5774 5773 5772 5772 5771 5771 5771 5771 5771 5771 5771 5771 5770 5770 5771 5770 5770 5771 5771 5772 5773 5774 5774 5775 5777 5777 5778 5779 5779 5779 5780 5780 5780 5780 5780 5780 5781 5782 5782 5783 5783 5784 5784 5784 5784 5784 5785 5786 5787 5787 5788 5788 5788 5788 5789 5790 5790 5792 5793 5796 5798 5799 5801 5802 5803 5805 5807 5808 5810
5771 5771 5771 5771 5770 5769 5769 5769 5770 5771 5771 5771 5772 5772 5772 5772 5772 5772 5771 5771 5770 5769 5769 5769 5769 5769 5769 5769 5768 5768 5768 5768 5768 5768 5768 5769 5769 5770 5771 5772 5773 5774 5774 5775 5776 5776 5776 5776 5777 5777 5777 5777 5778 5779 5780 5780 5781 5782 5782 5782 5782 5782 5782 5783 5784 5784 5785 5785 5786 5786 5786 5787 5787 5789 5790 5792 5794 5796 5797 5799 5800 5801 5803 5805 5806
5768 5769 5769 5768 5767 5767 5767 5768 5768 5769 5768 5769 5770 5770 5770 5770 5770 5769 5769 5768 5768 5768 5767 5767 5767 5767 5767 5767 5767 5767 5767 5766 5766 5766 5766 5766 5766 5767 5767 5768 5769 5770 5771 5772 5773 5773 5774 5774 5774 5774 5774 5775 5775 5776 5777 5778 5778 5779 5779 5780 5780 5780 5780 5781 5781 5782 5782 5783 5783 5784 5784 5784 5785 5786 5788 5789 5790 5791 5793 5795 5797 5798 5799 5801 5803
5764 5765 5766 5766 5766 5766 5766 5766 5767 5767 5766 5767 5767 5768 5768 5768 5768 5767 5767 5766 5766 5766 5765 5765 5765 5765 5765 5765 5764 5764 5765 5765 5764 5764 5765 5765 5764 5764 5765 5765 5766 5767 5768 5769 5770 5771 5771 5772 5772 5772 5772 5773 5773 5773 5774 5775 5775 5775 5776 5777 5777 5778 5778 5779 5779 5779 5780 5780 5781 5781 5782 5782 5783 5784 5785 5786 5787 5788 5788 5790 5792 5793 5796 5798 5800
5761 5762 5764 5765 5765 5765 5765 5765 5765 5765 5765 5765 5765 5765 5766 5766 5766 5765 5765 5764 5764 5764 5763 5763 5763 5763 5763 5763 5763 5762 5763 5763 5763 5762 5763 5763 5763 5763 5763 5763 5764 5764 5765 5766 5767 5768 5769 5769 5770 5770 5770 5770 5771 5771 5771 5772 5772 5772 5773 5773 5774 5775 5776 5777 5777 5777 5777 5777 5778 5778 5779 5780 5780 5781 5782 5783 5783 5784 5784 5785 5787 5788 5791 5794 5796
5760 5761 5762 5763 5764 5763 5763 5763 5763 5763 5763 5762 5763 5763 5764 5764 5764 5764 5763 5763 5762 5762 5762 5762 5762 5762 5761 5761 5761 5761 5761 5761 5761 5761 5761 5761 5761 5761 5761 5761 5762 5762 5763 5763 5764 5765 5766 5767 5767 5767 5768 5768 5768 5768 5769 5769 5769 5770 5770 5771 5771 5772 5773 5774 5774 5775 5775 5775 5776 5776 5777 5777 5778 5778 5779 5780 5780 5780 5780 5781 5782 5784 5787 5789 5791
5758 5759 5760 5761 5761 5760 5760 5761 5761 5761 5761 5760 5760 5760 5761 5762 5762 5762 5762 5761 5761 5760 5760 5760 5760 5760 5760 5759 5759 5759 5759 5759 5759 5759 5759 5759 5759 5759 5759 5759 5760 5760 5761 5761 5762 5762 5763 5764 5764 5765 5765 5766 5766 5766 5766 5766 5767 5767 5768 5768 5768 5769 5769 5770 5771 5772 5772 5773 5774 5774 5774 5775 5775 5776 5776 5777 5777 5777 5777 5777 5777 5780 5782 5784 5785
5756 5757 5757 5757 5758 5758 5758 5758 5759 5759 5758 5758 5757 5758 5758 5759 5760 5760 5760 5759 5759 5759 5758 5758 5758 5758 5758 5758 5757 5757 5757 5757 5757 5757 5757 5757 5757 5757 5757 5758 5758 5758 5759 5759 5759 5760 5760 5761 5761 5762 5762 5763 5763 5763 5764 5764 5764 5765 5765 5766 5766 5766 5767 5767 5767 5768 5769 5770 5770 5771 5771 5772 5772 5773 5773 5773 5773 5774 5774 5774 5774 5775 5777 5779 5781
5754 5754 5754 5754 5755 5756 5756 5756 5757 5756 5755 5754 5754 5754 5755 5756 5757 5758 5758 5757 5757 5756 5756 5756 5756 5756 5756 5756 5756 5755 5755 5755 5756 5756 5755 5756 5756 5756 5756 5756 5756 5756 5756 5757 5757 5758 5758 5758 5759 5759 5760 5760 5761 5761 5761 5761 5762 5762 5763 5763 5764 5764 5764 5765 5765 5765 5765 5766 5766 5767 5768 5768 5768 5769 5769 5769 5770 5770 5771 5771 5771 5772 5773 5775 5776